"read_dt","SO2 (ppb)","flags","PMT voltage (V)","lamp voltage (V)","lamp intensity (Hz)","internal temp (C)","react chamber temp (C)","sample flow (l/min)","pres (mmHg)","SO2 bkg (ppb)","SO2 coefficient"
2017-04-16 00:00:00,1754E-3,5C000400,-0724,0837,12112,031.1,045.6,0.215,755.6,01.16,0.508
2017-04-16 00:01:00,1726E-3,5C000400,-0724,0838,12051,031.2,045.6,0.215,755.6,01.16,0.508
2017-04-16 00:02:00,1809E-3,5C000400,-0724,0838,11938,031.2,045.6,0.215,755.6,01.16,0.508
2017-04-16 00:03:00,1686E-3,5C000400,-0724,0837,12108,031.3,045.6,0.215,755.6,01.16,0.508
2017-04-16 00:04:00,1685E-3,5C000400,-0724,0838,12087,031.3,045.6,0.215,755.6,01.16,0.508
2017-04-16 00:05:00,1815E-3,5C000400,-0724,0838,12139,031.4,045.6,0.215,755.6,01.16,0.508
2017-04-16 00:06:00,1880E-3,5C000400,-0724,0838,12049,031.4,045.6,0.215,755.6,01.16,0.508
2017-04-16 00:07:00,1802E-3,5C000400,-0724,0838,12200,031.5,045.6,0.215,755.6,01.16,0.508
2017-04-16 00:08:00,1730E-3,5C000400,-0724,0838,12144,031.5,045.6,0.215,755.6,01.16,0.508
2017-04-16 00:09:00,1813E-3,5C000400,-0724,0838,11991,031.5,045.6,0.215,755.5,01.16,0.508
2017-04-16 00:10:00,1620E-3,5C000400,-0724,0839,11932,031.6,045.6,0.214,755.6,01.16,0.508
2017-04-16 00:11:00,1614E-3,5C000400,-0724,0838,12154,031.6,045.6,0.214,755.6,01.16,0.508
2017-04-16 00:12:00,1764E-3,5C000400,-0724,0838,12166,031.7,045.6,0.214,755.5,01.16,0.508
2017-04-16 00:13:00,1610E-3,5C000400,-0724,0838,12115,031.7,045.6,0.214,755.5,01.16,0.508
2017-04-16 00:14:00,1733E-3,5C000400,-0724,0838,12010,031.7,045.6,0.214,755.5,01.16,0.508
2017-04-16 00:15:00,1781E-3,5C000400,-0724,0838,12063,031.8,045.6,0.214,755.5,01.16,0.508
2017-04-16 00:16:00,1648E-3,5C000400,-0724,0837,12075,031.8,045.6,0.214,755.4,01.16,0.508
2017-04-16 00:17:00,1872E-3,5C000400,-0724,0838,12083,031.8,045.6,0.214,755.5,01.16,0.508
2017-04-16 00:18:00,1683E-3,5C000400,-0724,0838,12123,031.9,045.6,0.214,755.5,01.16,0.508
2017-04-16 00:19:00,1667E-3,5C000400,-0724,0838,12019,031.9,045.6,0.214,755.5,01.16,0.508
2017-04-16 00:20:00,1728E-3,5C000400,-0724,0838,12142,031.9,045.6,0.213,755.4,01.16,0.508
2017-04-16 00:21:00,1732E-3,5C000400,-0724,0838,12099,031.9,045.6,0.213,755.4,01.16,0.508
2017-04-16 00:22:00,1761E-3,5C000400,-0724,0838,12034,032.0,045.6,0.213,755.4,01.16,0.508
2017-04-16 00:23:00,1673E-3,5C000400,-0724,0838,12038,032.0,045.6,0.213,755.4,01.16,0.508
2017-04-16 00:24:00,1772E-3,5C000400,-0724,0839,12039,032.0,045.6,0.213,755.4,01.16,0.508
2017-04-16 00:25:00,1674E-3,5C000400,-0724,0838,12083,032.1,045.6,0.213,755.4,01.16,0.508
2017-04-16 00:26:00,1760E-3,5C000400,-0724,0838,12103,032.1,045.6,0.213,755.4,01.16,0.508
2017-04-16 00:27:00,1712E-3,5C000400,-0724,0839,12025,032.1,045.6,0.213,755.4,01.16,0.508
2017-04-16 00:28:00,1605E-3,5C000400,-0724,0838,12002,032.1,045.6,0.213,755.4,01.16,0.508
2017-04-16 00:29:00,1639E-3,5C000400,-0724,0838,12002,032.1,045.6,0.213,755.4,01.16,0.508
2017-04-16 00:30:00,1704E-3,5C000400,-0724,0838,12089,032.2,045.6,0.213,755.4,01.16,0.508
2017-04-16 00:31:00,1709E-3,5C000400,-0724,0838,12035,032.2,045.6,0.213,755.4,01.16,0.508
2017-04-16 00:32:00,1708E-3,5C000400,-0724,0839,12059,032.2,045.6,0.213,755.3,01.16,0.508
2017-04-16 00:33:00,1653E-3,5C000400,-0724,0838,12016,032.2,045.6,0.212,755.4,01.16,0.508
2017-04-16 00:34:00,1705E-3,5C000400,-0724,0839,12131,032.3,045.6,0.213,755.4,01.16,0.508
2017-04-16 00:35:00,1664E-3,5C000400,-0724,0839,12140,032.3,045.6,0.213,755.4,01.16,0.508
2017-04-16 00:36:00,1696E-3,5C000400,-0724,0839,12024,032.3,045.6,0.213,755.4,01.16,0.508
2017-04-16 00:37:00,1730E-3,5C000400,-0724,0838,12167,032.3,045.6,0.213,755.4,01.16,0.508
2017-04-16 00:38:00,1671E-3,5C000400,-0724,0838,12121,032.3,045.6,0.212,755.4,01.16,0.508
2017-04-16 00:39:00,1652E-3,5C000400,-0724,0838,12114,032.3,045.6,0.213,755.4,01.16,0.508
2017-04-16 00:40:00,1768E-3,5C000400,-0724,0839,12065,032.2,045.6,0.213,755.4,01.16,0.508
2017-04-16 00:41:00,1709E-3,5C000400,-0724,0838,12086,032.1,045.6,0.213,755.4,01.16,0.508
2017-04-16 00:42:00,1683E-3,5C000400,-0724,0839,12116,031.9,045.6,0.213,755.4,01.16,0.508
2017-04-16 00:43:00,1745E-3,5C000400,-0724,0838,12146,031.8,045.6,0.213,755.5,01.16,0.508
2017-04-16 00:44:00,1713E-3,5C000400,-0724,0837,12144,031.5,045.6,0.212,755.5,01.16,0.508
2017-04-16 00:45:00,1793E-3,5C000400,-0724,0838,11906,031.3,045.6,0.213,755.5,01.16,0.508
2017-04-16 00:46:00,1662E-3,5C000400,-0724,0837,12144,031.0,045.5,0.213,755.5,01.16,0.508
2017-04-16 00:47:00,1740E-3,5C000400,-0724,0837,12088,030.8,045.5,0.213,755.5,01.16,0.508
2017-04-16 00:48:00,1731E-3,5C000400,-0724,0837,12066,030.6,045.5,0.213,755.5,01.16,0.508
2017-04-16 00:49:00,1548E-3,5C000400,-0724,0837,12000,030.4,045.5,0.214,755.5,01.16,0.508
2017-04-16 00:50:00,1752E-3,5C000400,-0724,0837,12034,030.3,045.5,0.214,755.5,01.16,0.508
2017-04-16 00:51:00,1739E-3,5C000400,-0724,0838,11987,030.2,045.5,0.215,755.5,01.16,0.508
2017-04-16 00:52:00,1767E-3,5C000400,-0724,0837,11988,030.1,045.5,0.215,755.6,01.16,0.508
2017-04-16 00:53:00,1652E-3,5C000400,-0724,0837,11972,030.0,045.5,0.215,755.6,01.16,0.508
2017-04-16 00:54:00,1597E-3,5C000400,-0724,0838,12076,030.0,045.5,0.216,755.5,01.16,0.508
2017-04-16 00:55:00,1777E-3,5C000400,-0724,0837,12119,030.1,045.5,0.216,755.6,01.16,0.508
2017-04-16 00:56:00,1745E-3,5C000400,-0724,0837,12175,030.2,045.5,0.216,755.6,01.16,0.508
2017-04-16 00:57:00,1658E-3,5C000400,-0724,0838,12051,030.2,045.5,0.216,755.6,01.16,0.508
2017-04-16 00:58:00,1738E-3,5C000400,-0724,0838,12026,030.3,045.5,0.216,755.6,01.16,0.508
2017-04-16 00:59:00,1760E-3,5C000400,-0724,0837,11966,030.4,045.5,0.216,755.6,01.16,0.508
2017-04-16 01:00:00,1739E-3,5C000400,-0724,0838,12122,030.5,045.5,0.216,755.6,01.16,0.508
2017-04-16 01:01:00,1700E-3,5C000400,-0724,0838,12162,030.5,045.5,0.216,755.6,01.16,0.508
2017-04-16 01:02:00,1797E-3,5C000400,-0724,0838,11780,030.6,045.5,0.216,755.6,01.16,0.508
2017-04-16 01:03:00,1690E-3,5C000400,-0724,0837,12074,030.7,045.5,0.216,755.6,01.16,0.508
2017-04-16 01:04:00,1699E-3,5C000400,-0724,0838,12176,030.7,045.5,0.216,755.6,01.16,0.508
2017-04-16 01:05:00,1677E-3,5C000400,-0724,0837,12016,030.8,045.6,0.216,755.7,01.16,0.508
2017-04-16 01:06:00,1680E-3,5C000400,-0724,0838,12065,030.9,045.5,0.215,755.7,01.16,0.508
2017-04-16 01:07:00,1775E-3,5C000400,-0724,0838,12080,031.0,045.5,0.216,755.7,01.16,0.508
2017-04-16 01:08:00,1681E-3,5C000400,-0724,0838,12059,031.0,045.5,0.216,755.6,01.16,0.508
2017-04-16 01:09:00,1615E-3,5C000400,-0724,0838,12048,031.1,045.6,0.216,755.6,01.16,0.508
2017-04-16 01:10:00,1726E-3,5C000400,-0724,0838,11999,031.1,045.6,0.215,755.6,01.16,0.508
2017-04-16 01:11:00,1704E-3,5C000400,-0724,0838,11843,031.2,045.5,0.215,755.6,01.16,0.508
2017-04-16 01:12:00,1766E-3,5C000400,-0724,0838,12047,031.2,045.6,0.215,755.6,01.16,0.508
2017-04-16 01:13:00,1762E-3,5C000400,-0724,0839,11937,031.3,045.6,0.215,755.6,01.16,0.508
2017-04-16 01:14:00,1658E-3,5C000400,-0724,0838,11991,031.3,045.6,0.215,755.6,01.16,0.508
2017-04-16 01:15:00,1682E-3,5C000400,-0724,0838,12069,031.4,045.6,0.215,755.6,01.16,0.508
2017-04-16 01:16:00,1793E-3,5C000400,-0724,0838,12042,031.4,045.6,0.215,755.6,01.16,0.508
2017-04-16 01:17:00,1897E-3,5C000400,-0724,0837,12045,031.5,045.5,0.214,755.6,01.16,0.508
2017-04-16 01:18:00,1782E-3,5C000400,-0724,0839,12091,031.5,045.6,0.214,755.6,01.16,0.508
2017-04-16 01:19:00,1683E-3,5C000400,-0724,0838,11937,031.6,045.6,0.214,755.7,01.16,0.508
2017-04-16 01:20:00,1611E-3,5C000400,-0724,0838,11931,031.6,045.6,0.214,755.7,01.16,0.508
2017-04-16 01:21:00,1692E-3,5C000400,-0724,0839,12043,031.7,045.6,0.214,755.6,01.16,0.508
2017-04-16 01:22:00,1638E-3,5C000400,-0724,0838,12052,031.7,045.6,0.214,755.7,01.16,0.508
2017-04-16 01:23:00,1840E-3,5C000400,-0724,0838,12126,031.8,045.6,0.214,755.6,01.16,0.508
2017-04-16 01:24:00,1753E-3,5C000400,-0724,0839,12095,031.8,045.6,0.214,755.6,01.16,0.508
2017-04-16 01:25:00,1648E-3,5C000400,-0724,0838,12169,031.8,045.6,0.214,755.7,01.16,0.508
2017-04-16 01:26:00,1804E-3,5C000400,-0724,0838,12039,031.9,045.6,0.214,755.7,01.16,0.508
2017-04-16 01:27:00,1753E-3,5C000400,-0724,0838,11982,031.9,045.6,0.214,755.6,01.16,0.508
2017-04-16 01:28:00,1557E-3,5C000400,-0724,0838,11971,032.0,045.6,0.214,755.6,01.16,0.508
2017-04-16 01:29:00,1728E-3,5C000400,-0724,0838,11973,032.0,045.6,0.214,755.6,01.16,0.508
2017-04-16 01:30:00,1702E-3,5C000400,-0724,0839,11906,032.0,045.6,0.213,755.6,01.16,0.508
2017-04-16 01:31:00,1735E-3,5C000400,-0724,0839,12181,032.1,045.6,0.213,755.6,01.16,0.508
2017-04-16 01:32:00,1681E-3,5C000400,-0724,0839,12024,032.1,045.6,0.213,755.6,01.16,0.508
2017-04-16 01:33:00,1753E-3,5C000400,-0724,0838,12075,032.1,045.6,0.213,755.6,01.16,0.508
2017-04-16 01:34:00,1625E-3,5C000400,-0724,0838,12106,032.0,045.6,0.213,755.6,01.16,0.508
2017-04-16 01:35:00,1669E-3,5C000400,-0724,0839,12100,032.0,045.6,0.213,755.7,01.16,0.508
2017-04-16 01:36:00,1769E-3,5C000400,-0724,0838,12012,031.8,045.6,0.213,755.7,01.16,0.508
2017-04-16 01:37:00,1678E-3,5C000400,-0724,0838,12025,031.6,045.6,0.213,755.8,01.16,0.508
2017-04-16 01:38:00,1615E-3,5C000400,-0724,0838,12061,031.4,045.5,0.213,755.8,01.16,0.508
2017-04-16 01:39:00,1635E-3,5C000400,-0724,0838,12014,031.2,045.6,0.214,755.8,01.16,0.508
2017-04-16 01:40:00,1769E-3,5C000400,-0724,0837,11924,031.0,045.6,0.214,755.8,01.16,0.508
2017-04-16 01:41:00,1743E-3,5C000400,-0724,0838,12099,030.8,045.5,0.214,755.8,01.16,0.508
2017-04-16 01:42:00,1733E-3,5C000400,-0724,0838,12055,030.5,045.5,0.215,755.8,01.16,0.508
2017-04-16 01:43:00,1716E-3,5C000400,-0724,0838,12019,030.4,045.5,0.214,755.9,01.16,0.508
2017-04-16 01:44:00,1917E-3,5C000400,-0724,0837,12047,030.2,045.5,0.214,755.8,01.16,0.508
2017-04-16 01:45:00,1556E-3,5C000400,-0724,0837,11958,030.1,045.5,0.215,755.9,01.16,0.508
2017-04-16 01:46:00,1773E-3,5C000400,-0724,0838,12128,030.0,045.5,0.215,755.9,01.16,0.508
2017-04-16 01:47:00,1802E-3,5C000400,-0724,0837,12157,030.0,045.5,0.215,755.8,01.16,0.508
2017-04-16 01:48:00,1698E-3,5C000400,-0724,0837,12046,030.0,045.5,0.216,755.9,01.16,0.508
2017-04-16 01:49:00,1604E-3,5C000400,-0724,0837,12158,030.0,045.5,0.216,755.9,01.16,0.508
2017-04-16 01:50:00,1806E-3,5C000400,-0724,0837,12125,030.1,045.5,0.216,755.9,01.16,0.508
2017-04-16 01:51:00,1662E-3,5C000400,-0724,0837,12014,030.2,045.5,0.216,755.9,01.16,0.508
2017-04-16 01:52:00,1703E-3,5C000400,-0724,0837,11936,030.3,045.5,0.216,755.9,01.16,0.508
2017-04-16 01:53:00,1558E-3,5C000400,-0724,0838,11973,030.4,045.6,0.216,755.8,01.16,0.508
2017-04-16 01:54:00,1624E-3,5C000400,-0724,0837,11971,030.4,045.6,0.216,755.8,01.16,0.508
2017-04-16 01:55:00,1764E-3,5C000400,-0724,0838,12118,030.5,045.5,0.216,755.8,01.16,0.508
2017-04-16 01:56:00,1764E-3,5C000400,-0724,0838,12044,030.6,045.5,0.216,755.8,01.16,0.508
2017-04-16 01:57:00,1843E-3,5C000400,-0724,0837,12031,030.7,045.6,0.216,755.8,01.16,0.508
2017-04-16 01:58:00,1620E-3,5C000400,-0724,0837,12088,030.8,045.6,0.216,755.9,01.16,0.508
2017-04-16 01:59:00,1687E-3,5C000400,-0724,0838,12058,030.8,045.5,0.216,755.8,01.16,0.508
2017-04-16 02:00:00,1746E-3,5C000400,-0724,0837,11856,030.9,045.5,0.216,755.8,01.16,0.508
2017-04-16 02:01:00,1745E-3,5C000400,-0724,0838,12120,030.9,045.6,0.216,755.8,01.16,0.508
2017-04-16 02:02:00,1604E-3,5C000400,-0724,0838,11971,031.0,045.5,0.216,755.8,01.16,0.508
2017-04-16 02:03:00,1750E-3,5C000400,-0724,0838,12141,031.1,045.5,0.216,755.8,01.16,0.508
2017-04-16 02:04:00,1662E-3,5C000400,-0724,0837,12145,031.1,045.6,0.216,755.8,01.16,0.508
2017-04-16 02:05:00,1678E-3,5C000400,-0724,0837,12043,031.2,045.6,0.215,755.8,01.16,0.508
2017-04-16 02:06:00,1668E-3,5C000400,-0724,0838,12167,031.3,045.6,0.215,755.8,01.16,0.508
2017-04-16 02:07:00,1764E-3,5C000400,-0724,0838,12086,031.3,045.5,0.215,755.8,01.16,0.508
2017-04-16 02:08:00,1780E-3,5C000400,-0724,0837,11932,031.4,045.6,0.215,755.8,01.16,0.508
2017-04-16 02:09:00,1726E-3,5C000400,-0724,0838,12094,031.4,045.6,0.215,755.8,01.16,0.508
2017-04-16 02:10:00,1687E-3,5C000400,-0724,0838,11879,031.5,045.6,0.215,755.8,01.16,0.508
2017-04-16 02:11:00,1620E-3,5C000400,-0724,0838,11965,031.5,045.6,0.214,755.8,01.16,0.508
2017-04-16 02:12:00,1768E-3,5C000400,-0724,0838,12121,031.6,045.6,0.214,755.7,01.16,0.508
2017-04-16 02:13:00,1741E-3,5C000400,-0724,0838,12102,031.6,045.5,0.214,755.7,01.16,0.508
2017-04-16 02:14:00,1672E-3,5C000400,-0724,0837,11899,031.7,045.5,0.214,755.7,01.16,0.508
2017-04-16 02:15:00,1635E-3,5C000400,-0724,0838,12077,031.7,045.6,0.214,755.7,01.16,0.508
2017-04-16 02:16:00,1740E-3,5C000400,-0724,0838,11932,031.8,045.6,0.214,755.7,01.16,0.508
2017-04-16 02:17:00,1581E-3,5C000400,-0724,0838,11910,031.8,045.6,0.214,755.7,01.16,0.508
2017-04-16 02:18:00,1759E-3,5C000400,-0724,0838,11980,031.8,045.6,0.214,755.7,01.16,0.508
2017-04-16 02:19:00,1659E-3,5C000400,-0724,0838,11945,031.8,045.6,0.214,755.7,01.16,0.508
2017-04-16 02:20:00,1724E-3,5C000400,-0724,0839,12074,031.8,045.6,0.214,755.8,01.16,0.508
2017-04-16 02:21:00,1840E-3,5C000400,-0724,0838,12129,031.7,045.6,0.213,755.8,01.16,0.508
2017-04-16 02:22:00,1798E-3,5C000400,-0724,0837,12050,031.6,045.5,0.214,755.8,01.16,0.508
2017-04-16 02:23:00,1634E-3,5C000400,-0724,0838,11865,031.4,045.5,0.214,755.8,01.16,0.508
2017-04-16 02:24:00,1752E-3,5C000400,-0724,0838,11934,031.2,045.5,0.214,755.8,01.16,0.508
2017-04-16 02:25:00,1760E-3,5C000400,-0724,0837,11971,031.0,045.5,0.214,755.9,01.16,0.508
2017-04-16 02:26:00,1683E-3,5C000400,-0724,0837,11962,030.7,045.5,0.214,755.9,01.16,0.508
2017-04-16 02:27:00,1813E-3,5C000400,-0724,0837,12104,030.5,045.5,0.214,755.9,01.16,0.508
2017-04-16 02:28:00,1818E-3,5C000400,-0724,0837,11999,030.3,045.5,0.215,755.9,01.16,0.508
2017-04-16 02:29:00,1690E-3,5C000400,-0724,0837,11977,030.2,045.5,0.215,755.9,01.16,0.508
2017-04-16 02:30:00,1657E-3,5C000400,-0724,0837,12093,030.0,045.5,0.215,755.9,01.16,0.508
2017-04-16 02:31:00,1656E-3,5C000400,-0724,0837,12242,030.0,045.5,0.215,755.9,01.16,0.508
2017-04-16 02:32:00,1665E-3,5C000400,-0724,0838,12080,029.9,045.5,0.215,755.9,01.16,0.508
2017-04-16 02:33:00,1699E-3,5C000400,-0724,0837,12191,029.9,045.5,0.216,755.9,01.16,0.508
2017-04-16 02:34:00,1670E-3,5C000400,-0724,0837,12081,029.8,045.5,0.216,755.9,01.16,0.508
2017-04-16 02:35:00,1655E-3,5C000400,-0724,0837,11946,029.9,045.5,0.216,755.9,01.16,0.508
2017-04-16 02:36:00,1693E-3,5C000400,-0724,0836,12131,029.9,045.5,0.217,755.9,01.16,0.508
2017-04-16 02:37:00,1773E-3,5C000400,-0724,0837,12015,029.9,045.5,0.217,755.9,01.16,0.508
2017-04-16 02:38:00,1728E-3,5C000400,-0724,0837,12079,030.0,045.5,0.217,755.9,01.16,0.508
2017-04-16 02:39:00,1633E-3,5C000400,-0724,0837,12055,030.0,045.5,0.217,755.9,01.16,0.508
2017-04-16 02:40:00,1616E-3,5C000400,-0724,0837,11928,030.1,045.5,0.217,755.9,01.16,0.508
2017-04-16 02:41:00,1712E-3,5C000400,-0724,0837,12083,030.2,045.5,0.217,755.9,01.16,0.508
2017-04-16 02:42:00,1683E-3,5C000400,-0724,0837,11990,030.1,045.5,0.217,755.9,01.16,0.508
2017-04-16 02:43:00,1669E-3,5C000400,-0724,0838,12198,030.1,045.5,0.217,756.0,01.16,0.508
2017-04-16 02:44:00,1619E-3,5C000400,-0724,0837,12103,030.1,045.5,0.217,756.0,01.16,0.508
2017-04-16 02:45:00,1745E-3,5C000400,-0724,0837,12022,030.0,045.5,0.217,756.0,01.16,0.508
2017-04-16 02:46:00,1627E-3,5C000400,-0724,0838,12072,029.9,045.5,0.216,756.1,01.16,0.508
2017-04-16 02:47:00,1648E-3,5C000400,-0724,0838,11990,029.8,045.5,0.217,756.1,01.16,0.508
2017-04-16 02:48:00,1544E-3,5C000400,-0724,0837,11917,029.8,045.5,0.217,756.1,01.16,0.508
2017-04-16 02:49:00,1784E-3,5C000400,-0724,0838,12057,029.7,045.5,0.217,756.1,01.16,0.508
2017-04-16 02:50:00,1826E-3,5C000400,-0724,0837,12045,029.7,045.5,0.217,756.1,01.16,0.508
2017-04-16 02:51:00,1657E-3,5C000400,-0724,0837,12013,029.7,045.5,0.217,756.1,01.16,0.508
2017-04-16 02:52:00,1601E-3,5C000400,-0724,0838,12140,029.6,045.5,0.217,756.1,01.16,0.508
2017-04-16 02:53:00,1549E-3,5C000400,-0724,0837,12181,029.6,045.5,0.217,756.1,01.16,0.508
2017-04-16 02:54:00,1752E-3,5C000400,-0724,0837,12046,029.6,045.5,0.218,756.1,01.16,0.508
2017-04-16 02:55:00,1669E-3,5C000400,-0724,0837,12051,029.5,045.5,0.218,756.1,01.16,0.508
2017-04-16 02:56:00,1698E-3,5C000400,-0724,0837,12103,029.5,045.5,0.218,756.1,01.16,0.508
2017-04-16 02:57:00,1557E-3,5C000400,-0724,0838,12131,029.5,045.5,0.218,756.1,01.16,0.508
2017-04-16 02:58:00,1598E-3,5C000400,-0724,0837,12033,029.4,045.5,0.218,756.1,01.16,0.508
2017-04-16 02:59:00,1703E-3,5C000400,-0724,0837,12069,029.4,045.5,0.218,756.1,01.16,0.508
2017-04-16 03:00:00,1637E-3,5C000400,-0724,0837,12021,029.4,045.5,0.218,756.1,01.16,0.508
2017-04-16 03:01:00,1789E-3,5C000400,-0724,0838,12015,029.5,045.5,0.218,756.1,01.16,0.508
2017-04-16 03:02:00,1551E-3,5C000400,-0724,0837,12111,029.6,045.5,0.218,756.1,01.16,0.508
2017-04-16 03:03:00,1654E-3,5C000400,-0724,0836,12232,029.7,045.5,0.218,756.1,01.16,0.508
2017-04-16 03:04:00,1817E-3,5C000400,-0724,0837,12023,029.8,045.5,0.218,756.1,01.16,0.508
2017-04-16 03:05:00,1638E-3,5C000400,-0724,0837,11948,029.9,045.5,0.218,756.1,01.16,0.508
2017-04-16 03:06:00,1867E-3,5C000400,-0724,0837,12079,030.0,045.5,0.217,756.2,01.16,0.508
2017-04-16 03:07:00,1678E-3,5C000400,-0724,0837,12064,030.1,045.5,0.218,756.1,01.16,0.508
2017-04-16 03:08:00,1621E-3,5C000400,-0724,0837,12025,030.2,045.5,0.218,756.1,01.16,0.508
2017-04-16 03:09:00,1555E-3,5C000400,-0724,0838,11957,030.3,045.5,0.218,756.1,01.16,0.508
2017-04-16 03:10:00,1737E-3,5C000400,-0724,0837,12026,030.4,045.5,0.217,756.1,01.16,0.508
2017-04-16 03:11:00,1691E-3,5C000400,-0724,0837,12072,030.5,045.5,0.217,756.1,01.16,0.508
2017-04-16 03:12:00,1605E-3,5C000400,-0724,0838,12115,030.5,045.5,0.217,756.1,01.16,0.508
2017-04-16 03:13:00,1740E-3,5C000400,-0724,0837,12030,030.6,045.5,0.216,756.1,01.16,0.508
2017-04-16 03:14:00,1816E-3,5C000400,-0724,0838,12110,030.7,045.5,0.217,756.1,01.16,0.508
2017-04-16 03:15:00,1649E-3,5C000400,-0724,0838,11982,030.8,045.5,0.217,756.1,01.16,0.508
2017-04-16 03:16:00,1709E-3,5C000400,-0724,0839,12046,030.9,045.5,0.216,756.1,01.16,0.508
2017-04-16 03:17:00,1674E-3,5C000400,-0724,0837,12047,030.9,045.5,0.216,756.1,01.16,0.508
2017-04-16 03:18:00,1583E-3,5C000400,-0724,0838,12024,031.0,045.5,0.216,756.1,01.16,0.508
2017-04-16 03:19:00,1718E-3,5C000400,-0724,0838,12067,031.1,045.5,0.216,756.1,01.16,0.508
2017-04-16 03:20:00,1737E-3,5C000400,-0724,0838,12040,031.1,045.5,0.216,756.1,01.16,0.508
2017-04-16 03:21:00,1648E-3,5C000400,-0724,0838,11936,031.2,045.5,0.216,756.1,01.16,0.508
2017-04-16 03:22:00,1736E-3,5C000400,-0724,0838,12147,031.3,045.6,0.215,756.1,01.16,0.508
2017-04-16 03:23:00,1660E-3,5C000400,-0724,0838,12052,031.3,045.6,0.215,756.1,01.16,0.508
2017-04-16 03:24:00,1734E-3,5C000400,-0724,0838,12086,031.4,045.6,0.215,756.1,01.16,0.508
2017-04-16 03:25:00,1591E-3,5C000400,-0724,0838,12043,031.5,045.5,0.215,756.1,01.16,0.508
2017-04-16 03:26:00,1675E-3,5C000400,-0724,0838,12077,031.5,045.6,0.215,756.1,01.16,0.508
2017-04-16 03:27:00,1753E-3,5C000400,-0724,0838,12068,031.6,045.6,0.215,756.1,01.16,0.508
2017-04-16 03:28:00,1790E-3,5C000400,-0724,0837,12089,031.6,045.6,0.215,756.1,01.16,0.508
2017-04-16 03:29:00,1650E-3,5C000400,-0724,0838,12079,031.7,045.6,0.215,756.1,01.16,0.508
2017-04-16 03:30:00,1698E-3,5C000400,-0724,0838,12034,031.7,045.6,0.214,756.1,01.16,0.508
2017-04-16 03:31:00,1680E-3,5C000400,-0724,0837,12038,031.7,045.6,0.214,756.1,01.16,0.508
2017-04-16 03:32:00,1763E-3,5C000400,-0724,0838,11984,031.7,045.6,0.214,756.1,01.16,0.508
2017-04-16 03:33:00,1770E-3,5C000400,-0724,0838,12063,031.6,045.6,0.214,756.1,01.16,0.508
2017-04-16 03:34:00,1623E-3,5C000400,-0724,0837,12172,031.4,045.6,0.214,756.2,01.16,0.508
2017-04-16 03:35:00,1766E-3,5C000400,-0724,0837,11866,031.3,045.5,0.214,756.2,01.16,0.508
2017-04-16 03:36:00,1687E-3,5C000400,-0724,0838,12092,031.1,045.5,0.214,756.2,01.16,0.508
2017-04-16 03:37:00,1690E-3,5C000400,-0724,0836,12107,030.8,045.5,0.214,756.1,01.16,0.508
2017-04-16 03:38:00,1816E-3,5C000400,-0724,0837,12079,030.6,045.5,0.215,756.2,01.16,0.508
2017-04-16 03:39:00,1666E-3,5C000400,-0724,0838,12075,030.4,045.5,0.215,756.1,01.16,0.508
2017-04-16 03:40:00,1577E-3,5C000400,-0724,0837,12086,030.2,045.5,0.215,756.1,01.16,0.508
2017-04-16 03:41:00,1712E-3,5C000400,-0724,0836,12042,030.0,045.5,0.215,756.1,01.16,0.508
2017-04-16 03:42:00,1757E-3,5C000400,-0724,0836,12023,029.9,045.5,0.216,756.2,01.16,0.508
2017-04-16 03:43:00,1762E-3,5C000400,-0724,0837,12075,029.8,045.5,0.215,756.2,01.16,0.508
2017-04-16 03:44:00,1739E-3,5C000400,-0724,0837,12027,029.7,045.5,0.216,756.2,01.16,0.508
2017-04-16 03:45:00,1650E-3,5C000400,-0724,0837,12028,029.6,045.5,0.216,756.2,01.16,0.508
2017-04-16 03:46:00,1670E-3,5C000400,-0724,0836,12201,029.6,045.5,0.216,756.1,01.16,0.508
2017-04-16 03:47:00,1621E-3,5C000400,-0724,0837,11991,029.7,045.5,0.216,756.1,01.16,0.508
2017-04-16 03:48:00,1680E-3,5C000400,-0724,0837,12015,029.7,045.5,0.217,756.1,01.16,0.508
2017-04-16 03:49:00,1742E-3,5C000400,-0724,0836,12112,029.8,045.5,0.217,756.1,01.16,0.508
2017-04-16 03:50:00,1669E-3,5C000400,-0724,0837,12118,029.9,045.5,0.217,756.1,01.16,0.508
2017-04-16 03:51:00,1662E-3,5C000400,-0724,0837,12084,030.0,045.5,0.217,756.1,01.16,0.508
2017-04-16 03:52:00,1705E-3,5C000400,-0724,0837,12065,030.1,045.5,0.217,756.1,01.16,0.508
2017-04-16 03:53:00,1680E-3,5C000400,-0724,0837,12028,030.1,045.5,0.217,756.1,01.16,0.508
2017-04-16 03:54:00,1672E-3,5C000400,-0724,0838,11972,030.2,045.5,0.217,756.1,01.16,0.508
2017-04-16 03:55:00,1663E-3,5C000400,-0724,0837,12108,030.3,045.5,0.217,756.1,01.16,0.508
2017-04-16 03:56:00,1610E-3,5C000400,-0724,0837,11918,030.3,045.5,0.217,756.1,01.16,0.508
2017-04-16 03:57:00,1686E-3,5C000400,-0724,0837,12042,030.3,045.5,0.216,756.1,01.16,0.508
2017-04-16 03:58:00,1879E-3,5C000400,-0724,0838,12105,030.2,045.5,0.217,756.1,01.16,0.508
2017-04-16 03:59:00,1786E-3,5C000400,-0724,0838,12123,030.1,045.5,0.217,756.1,01.16,0.508
2017-04-16 04:00:00,1697E-3,5C000400,-0724,0837,11948,030.0,045.5,0.217,756.2,01.16,0.508
2017-04-16 04:01:00,1636E-3,5C000400,-0724,0837,12084,029.9,045.5,0.217,756.2,01.16,0.508
2017-04-16 04:02:00,1642E-3,5C000400,-0724,0837,12102,029.8,045.5,0.217,756.1,01.16,0.508
2017-04-16 04:03:00,1682E-3,5C000400,-0724,0837,12086,029.8,045.5,0.217,756.2,01.16,0.508
2017-04-16 04:04:00,1734E-3,5C000400,-0724,0837,12064,029.7,045.5,0.217,756.2,01.16,0.508
2017-04-16 04:05:00,1665E-3,5C000400,-0724,0836,12050,029.6,045.5,0.217,756.2,01.16,0.508
2017-04-16 04:06:00,1799E-3,5C000400,-0724,0837,11961,029.6,045.5,0.217,756.2,01.16,0.508
2017-04-16 04:07:00,1600E-3,5C000400,-0724,0836,12163,029.6,045.5,0.217,756.2,01.16,0.508
2017-04-16 04:08:00,1651E-3,5C000400,-0724,0837,12103,029.5,045.5,0.218,756.2,01.16,0.508
2017-04-16 04:09:00,1855E-3,5C000400,-0724,0837,12038,029.5,045.5,0.218,756.2,01.16,0.508
2017-04-16 04:10:00,1718E-3,5C000400,-0724,0837,12048,029.4,045.5,0.218,756.3,01.16,0.508
2017-04-16 04:11:00,1676E-3,5C000400,-0724,0837,12115,029.4,045.5,0.218,756.3,01.16,0.508
2017-04-16 04:12:00,1577E-3,5C000400,-0724,0837,12088,029.3,045.5,0.218,756.3,01.16,0.508
2017-04-16 04:13:00,1788E-3,5C000400,-0724,0837,12078,029.3,045.5,0.218,756.3,01.16,0.508
2017-04-16 04:14:00,1774E-3,5C000400,-0724,0837,11969,029.3,045.5,0.218,756.3,01.16,0.508
2017-04-16 04:15:00,1655E-3,5C000400,-0724,0837,11951,029.3,045.5,0.218,756.3,01.16,0.508
2017-04-16 04:16:00,1690E-3,5C000400,-0724,0837,12095,029.2,045.5,0.218,756.3,01.16,0.508
2017-04-16 04:17:00,1655E-3,5C000400,-0724,0837,12135,029.2,045.5,0.218,756.3,01.16,0.508
2017-04-16 04:18:00,1631E-3,5C000400,-0724,0836,12075,029.3,045.5,0.218,756.3,01.16,0.508
2017-04-16 04:19:00,1745E-3,5C000400,-0724,0837,12166,029.3,045.5,0.218,756.3,01.16,0.508
2017-04-16 04:20:00,1718E-3,5C000400,-0724,0837,12129,029.3,045.5,0.218,756.3,01.16,0.508